Location: Kernascl�den
(48.0062°N, 3.3198°W)
Time: 07:37:52
(UTC+00:00)

Cosmos 1833 Rocket - Visible Passes

Search period start: 11 May 2021 00:00
Search period end: 21 May 2021 00:00
Orbit: 831 x 841 km, 71.0° (Epoch: 10 May)

Date Brightness Start Highest point End Pass type
(mag) Time Alt. Az. Time Alt. Az. Time Alt. Az.
11 May 2.8 20:57:01 10° NNW 21:02:40 66° ENE 21:07:04 17° SE visible
11 May 4.4 22:41:51 10° NW 22:46:05 22° W 22:48:46 16° SW visible
12 May 2.9 20:40:17 10° NNW 20:45:55 61° ENE 20:50:56 13° SE visible
12 May 4.4 22:24:59 10° NW 22:29:24 24° WSW 22:32:38 15° SW visible
13 May 3.0 20:23:34 10° NNW 20:29:10 57° ENE 20:34:43 10° SE visible
13 May 4.3 22:08:07 10° NW 22:12:42 26° WSW 22:16:32 13° SSW visible
14 May 4.2 21:51:18 10° NW 21:56:01 28° WSW 22:00:29 11° SSW visible
15 May 4.2 21:34:28 10° NW 21:39:19 30° WSW 21:44:09 10° SSW visible
16 May 4.1 21:17:39 10° NW 21:22:37 32° WSW 21:27:34 10° SSW visible
17 May 4.0 21:00:51 10° NW 21:05:55 35° WSW 21:10:58 10° S visible
18 May 3.9 20:44:03 10° NW 20:49:13 38° WSW 20:54:22 10° S visible
19 May 3.9 20:27:15 10° NW 20:32:31 41° WSW 20:37:44 10° S visible
